Flag for U.S.A. Weather past 2 weeks in Visalia, California, U.S.A.

Now
75 °F

Clear.


Feels Like: 77 °F
Forecast: 68 / 98 °F
Wind: No wind

Location: Visalia Municipal

Current Time: Jul 5, 2015 at 2:00:28 AM

Latest Report: Jul 5, 2015 at 1:35 AM


Visibility: 10 mi

Pressure: 29.77 "Hg

Humidity: 65%

Dew point: 63 °F

Location of VisaliaLocation

Historic Weather in Visalia — Graph

°F

Visalia temperature yesterday

Maximum temperature yesterday: 100 °F (at 4:15 PM)
Minimum temperature yesterday: 70 °F (at 6:15 AM)
Average temperature yesterday: 85 °F

Past Weeks' High & Low Weather Summary

 TemperatureHumidityPressure
High106 °F (Jun 26, 5:15 PM)79% (Jul 2, 2:55 AM)30.00 "Hg (Jul 2, 2:55 AM)
Low55 °F (Jun 22, 5:55 AM)10% (Jun 20, 5:55 PM)29.68 "Hg (Jul 4, 6:35 PM)
Average83 °F43%29.85 "Hg
* Reported Jun 20 12:15 AM — Jul 5 12:55 AM, Visalia, Weather by CustomWeather, © 2015

Note: Actual official high and low records may vary slightly from our data, if they occured in-between our weather recording intervals... More about our weather records

Advertising

Visalia weather history for previous 24 hours

 ConditionsComfort  
Time TempWeatherWind HumidityBarometerVisibility
12:55 AM
Sun, Jul 5
79 °FClear.3 mph54%29.77 "Hg10 mi
12:35 AM81 °FClear.7 mph54%29.77 "Hg10 mi
12:15 AM82 °FClear.8 mph51%29.76 "Hg10 mi
11:55 PM
Sat, Jul 4
82 °FClear.8 mph51%29.76 "Hg10 mi
11:35 PM82 °FClear.9 mph55%29.76 "Hg10 mi
11:15 PM82 °FClear.8 mph55%29.76 "Hg10 mi
10:55 PM84 °FClear.9 mph51%29.76 "Hg10 mi
10:35 PM86 °FClear.10 mph49%29.75 "Hg10 mi
10:15 PM84 °FClear.10 mph51%29.75 "Hg10 mi
9:55 PM88 °FClear.8 mph46%29.74 "Hg10 mi
9:35 PM88 °FClear.6 mph49%29.73 "Hg10 mi
8:55 PM90 °FSunny.7 mph46%29.71 "Hg10 mi
8:35 PM90 °FSunny.6 mph46%29.70 "Hg10 mi
7:55 PM93 °FSunny.6 mph41%29.70 "Hg10 mi
7:35 PM99 °FSunny.7 mph29%29.69 "Hg10 mi
7:15 PM99 °FSunny.8 mph31%29.69 "Hg10 mi
6:55 PM97 °FSunny.8 mph34%29.69 "Hg10 mi
6:35 PM99 °FSunny.9 mph33%29.68 "Hg10 mi
6:15 PM99 °FSunny.9 mph33%29.69 "Hg10 mi
5:55 PM99 °FSunny.8 mph33%29.69 "Hg10 mi
5:35 PM100 °FSunny.9 mph31%29.69 "Hg10 mi
5:15 PM100 °FSunny.8 mph31%29.69 "Hg10 mi
4:55 PM100 °FSunny.8 mph29%29.70 "Hg10 mi
4:35 PM100 °FSunny.7 mph31%29.70 "Hg10 mi
4:15 PM100 °FSunny.7 mph31%29.70 "Hg10 mi
3:55 PM99 °FSunny.6 mph35%29.71 "Hg10 mi
3:35 PM99 °FSunny.8 mph31%29.72 "Hg10 mi
3:15 PM97 °FSunny.7 mph32%29.72 "Hg10 mi
2:55 PM99 °FSunny.6 mph31%29.73 "Hg10 mi
2:35 PM97 °FSunny.8 mph32%29.74 "Hg10 mi
2:15 PM97 °FSunny.7 mph32%29.75 "Hg10 mi
1:55 PM95 °FSunny.9 mph36%29.75 "Hg10 mi
1:35 PM95 °FSunny.9 mph36%29.76 "Hg10 mi
1:15 PM93 °FSunny.10 mph39%29.77 "Hg10 mi
12:55 PM91 °FSunny.5 mph38%29.77 "Hg10 mi
12:35 PM91 °FSunny.8 mph38%29.78 "Hg10 mi
12:15 PM90 °FSunny.6 mph41%29.78 "Hg5 mi
11:55 AM90 °FSunny.8 mph41%29.79 "Hg10 mi
11:35 AM88 °FSunny.7 mph43%29.79 "Hg10 mi
11:15 AM88 °FSunny.6 mph40%29.80 "Hg10 mi
10:55 AM86 °FSunny.5 mph40%29.80 "Hg10 mi
10:35 AM86 °FSunny.7 mph40%29.80 "Hg10 mi
10:15 AM84 °FSunny.3 mph43%29.80 "Hg10 mi
9:55 AM82 °FSunny.3 mph45%29.80 "Hg10 mi
9:35 AM81 °FSunny.6 mph51%29.81 "Hg10 mi
9:15 AM81 °FSunny.No wind48%29.81 "Hg10 mi
8:55 AM79 °FSunny.No wind54%29.81 "Hg10 mi
8:35 AM79 °FSunny.No wind54%29.81 "Hg10 mi
8:15 AM77 °FSunny.No wind57%29.81 "Hg10 mi
7:55 AM75 °FSunny.No wind61%29.81 "Hg10 mi
7:35 AM73 °FSunny.3 mph65%29.81 "Hg10 mi
7:15 AM72 °FSunny.No wind69%29.80 "Hg10 mi
6:55 AM70 °FSunny.3 mph73%29.80 "Hg10 mi
6:35 AM70 °FClear.5 mph73%29.80 "Hg10 mi
6:15 AM70 °FClear.3 mph69%29.79 "Hg10 mi
5:55 AM72 °FClear.3 mph61%29.79 "Hg10 mi
5:35 AM72 °FClear.5 mph65%29.79 "Hg10 mi
5:15 AM72 °FClear.3 mph65%29.78 "Hg10 mi
4:55 AM73 °FClear.5 mph61%29.78 "Hg10 mi
4:35 AM73 °FClear.3 mph61%29.78 "Hg10 mi
4:15 AM75 °FClear.5 mph57%29.78 "Hg10 mi
3:55 AM75 °FClear.3 mph61%29.78 "Hg10 mi
3:35 AM75 °FClear.3 mph61%29.77 "Hg10 mi
3:15 AM73 °FClear.6 mph65%29.77 "Hg10 mi
2:55 AM75 °FClear.5 mph61%29.78 "Hg10 mi
2:35 AM75 °FClear.3 mph61%29.78 "Hg10 mi
2:15 AM79 °FClear.8 mph54%29.78 "Hg10 mi
Weather by CustomWeather, © 2015

See weather overviewHow to use our weather pages